NSS-12

Last updated on Sat Oct 18 2025 00:02:52 GMT+0000 (Coordinated Universal Time)

1 36032U 09058A 25290.70879046 .00000000 00000+0 00000+0 0 9993 2 36032 0.0242 77.2816 0003262 138.8596 122.4761 1.00269778 58486
UTC large
Height (km)
Speed (km/s)
/
Latitude / Longitude
Inclination (degrees)
Orbital Period (minutes)
Azimuth
Elevation
Range (km)
Doppler Factor

Next 0 passes for location: London (51.5072 / 0.1276)

Sorry there are no passes over London.